Date String (YYYY-MM-DD hh:mm:ss) UTC,Instrument flags,Ambient pressure (hPa),Sample flow (lpm),Bypass flow (lpm),Sample temperature (°C),Ambient temperature (°C),ASC tube jacket temperature (°C),LED temperature (°C),Box temperature (°C),Sample RH (%),Span deviation,Mass concentration (μg/m³),Mass concentration (μg/m³),Mass concentration (μg/m³)
DateTimeUTC,F1_M11,P_M11,Q1_M11,Q2_M11,T1_M11,T2_M11,T3_M11,T4_M11,T5_M11,U1_M11,ZSPAN_M11,X0_M11,X2_M11,X1_M11
2023-05-05 23:00:00,,0822.5,4.99,0.00,30.0,28.6,00.0,38.4,31.6,09.4,0000.0,0010.71,0004.13,0002.09
2023-05-05 23:01:00,,0822.6,4.99,0.00,30.1,28.6,00.0,38.4,31.6,09.5,0000.0,0010.57,0004.16,0002.11
2023-05-05 23:02:00,,0822.5,5.02,0.00,30.1,28.7,00.0,38.4,31.6,09.4,0000.0,0011.16,0004.15,0002.11
2023-05-05 23:03:00,,0822.6,4.99,0.00,30.1,28.7,00.0,38.4,31.6,09.4,0000.0,0011.20,0004.11,0002.12
2023-05-05 23:04:00,,0822.8,5.00,0.00,30.1,28.7,00.0,38.4,31.6,08.9,0000.0,0010.92,0004.06,0002.11
2023-05-05 23:05:00,,0822.7,5.00,0.00,30.1,28.7,00.0,38.4,31.7,08.9,0000.0,0010.18,0003.98,0002.09
2023-05-05 23:06:00,,0822.8,5.01,0.00,30.1,28.7,00.0,38.4,31.7,09.1,0000.0,0010.35,0003.96,0002.08
2023-05-05 23:07:00,,0822.7,5.02,0.00,30.2,28.8,00.0,38.5,31.7,09.3,0000.0,0010.60,0003.98,0002.07
2023-05-05 23:08:00,,0822.8,5.00,0.00,30.2,28.8,00.0,38.5,31.7,09.0,0000.0,0010.98,0003.98,0002.07
2023-05-05 23:09:00,,0822.8,5.00,0.00,30.2,28.8,00.0,38.5,31.8,09.0,0000.0,0011.25,0003.95,0002.06
2023-05-05 23:10:00,,0822.6,4.99,0.00,30.2,28.8,00.0,38.5,31.8,09.3,0000.0,0011.49,0003.97,0002.06
2023-05-05 23:11:00,,0822.5,5.00,0.00,30.2,28.8,00.0,38.5,31.8,08.9,0000.0,0012.56,0004.05,0002.05
2023-05-05 23:12:00,,0822.7,5.00,0.00,30.2,28.8,00.0,38.5,31.8,09.0,0000.0,0013.25,0004.07,0002.05
2023-05-05 23:13:00,,0822.7,4.99,0.00,30.2,28.2,00.0,38.5,31.8,09.1,0000.0,0012.39,0004.00,0002.05
2023-05-05 23:14:00,,0822.8,5.00,0.00,30.2,26.5,00.0,38.4,31.4,09.3,0000.0,0012.12,0003.98,0002.03
2023-05-05 23:15:00,,0822.7,5.02,0.00,30.1,26.0,00.0,38.3,31.3,09.4,0000.0,0012.33,0004.04,0002.03
2023-05-05 23:16:00,,0822.8,4.99,0.00,30.0,26.2,00.0,38.3,31.2,09.5,0000.0,0012.65,0004.12,0002.03
2023-05-05 23:17:00,,0822.9,5.00,0.00,29.9,26.5,00.0,38.3,31.2,09.4,0000.0,0012.56,0004.09,0002.02
2023-05-05 23:18:00,,0823.1,5.00,0.00,29.9,26.8,00.0,38.3,31.2,09.6,0000.0,0012.36,0004.05,0002.01
2023-05-05 23:19:00,,0822.6,4.99,0.00,29.9,27.1,00.0,38.3,31.2,09.5,0000.0,0012.58,0004.00,0002.00
2023-05-05 23:20:00,,0822.8,4.99,0.00,29.9,27.4,00.0,38.3,31.2,09.7,0000.0,0012.64,0004.01,0002.00
2023-05-05 23:21:00,,0822.7,5.02,0.00,29.9,27.6,00.0,38.3,31.3,09.7,0000.0,0012.64,0004.05,0001.99
2023-05-05 23:22:00,,0822.7,5.00,0.00,29.9,27.7,00.0,38.3,31.3,09.6,0000.0,0011.65,0003.99,0001.99
2023-05-05 23:23:00,,0822.6,4.99,0.00,29.9,27.9,00.0,38.3,31.3,09.6,0000.0,0011.02,0003.93,0001.98
2023-05-05 23:24:00,,0822.6,5.01,0.00,29.9,28.0,00.0,38.3,31.3,09.6,0000.0,0011.07,0003.90,0001.96
2023-05-05 23:25:00,,0822.7,5.01,0.00,29.9,28.1,00.0,38.3,31.3,09.5,0000.0,0011.24,0003.94,0001.95
2023-05-05 23:26:00,,0822.7,4.98,0.00,29.9,28.1,00.0,38.3,31.3,09.5,0000.0,0011.15,0003.89,0001.94
2023-05-05 23:27:00,,0823.0,5.00,0.00,29.9,28.2,00.0,38.3,31.4,09.5,0000.0,0011.46,0003.86,0001.94
2023-05-05 23:28:00,,0822.9,5.01,0.00,29.9,28.3,00.0,38.3,31.4,09.7,0000.0,0011.47,0003.92,0001.94
2023-05-05 23:29:00,,0822.8,5.00,0.00,29.9,28.3,00.0,38.3,31.4,09.7,0000.0,0010.92,0003.89,0001.93
2023-05-05 23:30:00,,0823.0,4.99,0.00,29.9,28.4,00.0,38.3,31.4,09.8,0000.0,0010.50,0003.85,0001.92
2023-05-05 23:31:00,,0823.1,4.99,0.00,29.9,28.4,00.0,38.3,31.4,09.8,0000.0,0010.53,0003.82,0001.90
2023-05-05 23:32:00,,0822.9,5.01,0.00,30.0,28.5,00.0,38.3,31.5,10.1,0000.0,0010.46,0003.77,0001.91
2023-05-05 23:33:00,,0822.9,5.00,0.00,30.0,28.5,00.0,38.3,31.5,10.2,0000.0,0010.35,0003.75,0001.91
2023-05-05 23:34:00,,0823.0,4.99,0.00,30.0,28.5,00.0,38.3,31.5,10.4,0000.0,0010.45,0003.73,0001.89
2023-05-05 23:35:00,,0823.0,4.99,0.00,30.0,28.6,00.0,38.3,31.5,10.4,0000.0,0010.58,0003.72,0001.89
2023-05-05 23:36:00,,0823.0,5.02,0.00,30.0,28.6,00.0,38.3,31.6,10.3,0000.0,0010.42,0003.69,0001.90
2023-05-05 23:37:00,,0823.1,5.00,0.00,30.0,28.6,00.0,38.3,31.6,10.2,0000.0,0010.41,0003.72,0001.91
2023-05-05 23:38:00,,0823.2,4.99,0.00,30.0,28.6,00.0,38.3,31.6,10.1,0000.0,0009.72,0003.69,0001.91
2023-05-05 23:39:00,,0823.1,5.00,0.00,30.1,28.6,00.0,38.4,31.6,10.3,0000.0,0009.70,0003.66,0001.91
2023-05-05 23:40:00,,0823.2,5.00,0.00,30.1,28.6,00.0,38.4,31.6,10.4,0000.0,0010.55,0003.67,0001.91
2023-05-05 23:41:00,,0823.2,5.00,0.00,30.1,28.6,00.0,38.4,31.7,10.5,0000.0,0010.32,0003.73,0001.92
2023-05-05 23:42:00,,0823.3,5.00,0.00,30.1,28.6,00.0,38.4,31.7,10.6,0000.0,0009.93,0003.74,0001.92
2023-05-05 23:43:00,,0823.2,4.99,0.00,30.1,28.6,00.0,38.4,31.6,10.7,0000.0,0009.84,0003.74,0001.91
2023-05-05 23:44:00,,0823.2,5.01,0.00,30.1,28.6,00.0,38.4,31.7,10.8,0000.0,0009.88,0003.77,0001.93
2023-05-05 23:45:00,,0823.3,5.00,0.00,30.1,28.6,00.0,38.4,31.7,10.8,0000.0,0010.17,0003.84,0001.93
2023-05-05 23:46:00,,0823.4,4.99,0.00,30.1,28.6,00.0,38.4,31.7,10.8,0000.0,0010.61,0003.86,0001.95
2023-05-05 23:47:00,,0823.4,4.99,0.00,30.1,28.6,00.0,38.4,31.7,10.8,0000.0,0011.00,0003.89,0001.96
2023-05-05 23:48:00,,0823.4,5.00,0.00,30.1,28.6,00.0,38.4,31.7,10.8,0000.0,0011.09,0003.88,0001.96
2023-05-05 23:49:00,,0823.4,5.00,0.00,30.1,28.6,00.0,38.5,31.7,10.9,0000.0,0011.67,0003.92,0001.95
2023-05-05 23:50:00,,0823.4,4.99,0.00,30.1,28.6,00.0,38.5,31.7,11.0,0000.0,0012.41,0003.94,0001.94
2023-05-05 23:51:00,,0823.3,5.01,0.00,30.2,28.6,00.0,38.5,31.7,11.1,0000.0,0012.37,0003.90,0001.94
2023-05-05 23:52:00,,0823.4,5.01,0.00,30.2,28.6,00.0,38.5,31.7,11.2,0000.0,0011.85,0003.85,0001.93
2023-05-05 23:53:00,,0823.3,4.99,0.00,30.2,28.6,00.0,38.5,31.7,11.3,0000.0,0011.77,0003.84,0001.93
2023-05-05 23:54:00,,0823.2,5.01,0.00,30.2,28.6,00.0,38.5,31.7,11.3,0000.0,0011.78,0003.91,0001.94
2023-05-05 23:55:00,,0823.3,5.01,0.00,30.2,28.6,00.0,38.5,31.7,11.3,0000.0,0011.73,0003.89,0001.92
2023-05-05 23:56:00,,0823.3,5.01,0.00,30.2,28.6,00.0,38.5,31.7,11.4,0000.0,0011.60,0003.81,0001.88
2023-05-05 23:57:00,,0823.4,4.99,0.00,30.2,28.5,00.0,38.5,31.7,11.4,0000.0,0011.46,0003.77,0001.85
2023-05-05 23:58:00,,0823.3,4.99,0.00,30.2,28.5,00.0,38.5,31.7,11.4,0000.0,0011.34,0003.73,0001.81
2023-05-05 23:59:00,,0823.3,5.01,0.00,30.2,28.5,00.0,38.5,31.7,11.4,0000.0,0011.18,0003.70,0001.80
